Wind_Speed
6 6 12 19 17 7 15 8 5 6 7 4 11 12 9 6 5 8 9 9 10 12 12 15 16 18 18 20 20 20 18 17 15 14 14 15 17 15 13 12 12 14 12 12
7 13 16 14 9 12 10 11 15 6 2 4 7 12 13 12 11 11 11 11 11 12 13 15 17 17 20 21 21 20 20 19 18 16 17 14 13 14 12 12 14 14 14 13
14 3 7 15 15 11 12 16 12 2 5 2 7 15 16 14 15 13 12 13 14 16 16 16 18 19 18 20 20 19 19 19 19 18 15 13 10 10 12 14 13 14 13 13
10 4 8 12 15 15 13 5 7 5 2 9 2 7 14 15 12 11 13 15 18 19 17 16 17 17 15 15 16 17 18 19 19 19 19 20 18 17 15 12 11 12 11 10
5 7 9 11 12 12 6 9 10 5 4 5 7 6 11 14 12 12 16 15 15 12 9 11 14 14 16 16 16 16 18 19 21 22 22 20 19 15 12 10 12 12 12 12
4 4 2 2 5 6 14 15 9 4 2 5 12 9 7 12 11 15 7 4 4 3 5 6 7 7 8 9 11 13 16 19 19 19 20 20 17 16 12 13 12 11 11 12
7 5 3 8 11 12 8 13 4 3 5 6 4 9 13 6 8 8 8 1 3 5 6 6 8 9 10 10 11 11 14 17 17 16 16 16 16 15 15 13 13 13 13 13
12 6 11 9 9 9 14 13 4 6 7 2 2 7 4 3 7 7 5 6 7 6 3 5 7 8 10 10 9 10 11 12 13 14 15 15 14 13 13 13 11 12 12 11
9 6 10 14 4 13 9 9 1 4 2 1 7 7 11 12 11 6 6 4 6 3 3 5 6 7 7 8 8 8 9 10 11 11 11 10 11 12 11 12 13 13 14 15
2 6 7 6 4 5 5 10 3 2 4 5 6 8 9 6 7 6 3 1 4 3 6 7 8 8 7 6 6 6 8 10 10 10 10 11 11 11 12 14 15 16 15 15
2 1 5 7 9 12 6 7 4 3 3 3 4 5 7 6 5 1 5 6 6 5 5 6 7 6 6 6 7 7 9 11 11 12 13 14 14 14 14 15 15 17 17 18
2 3 5 8 3 5 12 10 11 3 4 5 3 4 5 8 7 7 5 6 6 5 4 5 6 6 6 7 7 9 10 12 13 13 14 15 15 16 18 19 20 21 21 20
3 1 5 4 2 1 6 13 11 12 3 9 4 1 2 3 4 6 7 8 7 6 8 10 13 13 13 11 9 10 13 15 14 15 17 19 21 22 23 21 20 20 19 19
3 3 3 1 5 2 6 12 14 15 7 5 14 12 9 4 5 10 11 13 16 14 13 15 15 18 18 12 13 13 15 18 20 22 23 24 27 25 22 21 22 23 23 22
3 3 3 5 4 1 3 7 16 18 21 11 16 17 13 14 15 15 17 17 16 16 16 15 15 16 22 22 19 18 19 19 24 25 27 33 31 30 29 29 29 27 26 25
2 3 5 3 2 3 2 7 8 14 18 15 20 22 16 16 14 13 12 13 14 16 16 16 17 22 24 25 25 25 23 25 26 27 32 32 30 33 34 33 33 32 31 30
2 2 1 4 1 1 5 10 13 11 11 13 15 16 14 15 13 14 14 14 14 15 15 14 14 20 25 28 28 26 25 26 26 32 34 34 36 36 37 36 34 34 34 31
2 1 1 2 1 4 3 4 3 7 15 11 14 14 11 13 12 13 8 8 10 12 14 13 18 21 21 22 25 26 24 24 28 32 31 33 34 35 33 33 35 35 34 33
3 0 2 2 5 8 4 2 4 6 2 5 2 5 9 14 14 3 3 12 13 14 16 18 20 22 22 18 18 21 23 23 22 26 30 32 35 35 33 35 36 34 33 32
3 2 2 1 3 5 5 4 5 1 3 5 8 8 12 12 10 9 17 14 15 17 17 19 23 24 23 23 28 25 20 19 20 23 27 27 27 31 30 30 28 29 28 27
4 2 7 5 4 6 5 2 3 2 2 6 8 11 11 8 8 16 12 13 14 13 17 20 22 23 23 23 29 25 26 23 22 21 25 27 28 30 30 27 27 28 27 25
6 6 5 5 4 8 8 1 4 3 2 5 10 8 11 12 13 12 13 11 14 17 19 21 23 25 27 24 25 25 22 26 28 27 24 22 22 23 23 23 22 23 24 23
5 6 3 8 5 1 5 6 3 3 4 8 7 8 8 13 13 13 13 14 17 18 19 19 21 27 29 27 26 26 29 32 32 28 28 24 17 16 17 18 19 20 22 21
6 7 4 3 10 16 13 11 7 5 8 5 6 8 11 15 11 11 11 11 15 20 19 20 21 23 27 27 27 28 34 35 32 30 27 21 22 15 14 16 17 16 16 16
4 8 7 9 16 14 14 10 7 4 6 7 9 8 10 10 11 10 11 12 16 18 19 19 21 23 27 27 28 30 33 34 31 27 24 24 19 16 15 18 19 21 20 21
9 10 10 7 3 4 3 4 3 5 6 5 5 9 10 8 11 12 11 15 16 18 22 22 22 23 28 31 33 33 31 31 28 23 19 18 17 16 16 14 15 17 18 19
Wind_Direction
214 209 205 197 205 196 164 188 220 302 35 322 245 254 231 173 224 226 228 229 227 232 237 239 233 230 228 230 230 230 229 227 223 218 218 221 223 227 226 232 242 253 254 253
158 219 221 223 179 151 219 184 189 176 77 292 270 263 246 244 238 241 240 237 240 247 241 234 238 234 232 235 234 233 232 230 224 220 217 225 228 224 225 226 245 256 255 249
209 184 163 204 186 182 201 207 212 206 148 238 291 271 259 238 237 237 244 252 258 255 253 248 236 231 238 239 241 238 235 233 225 221 218 220 219 217 227 233 242 252 251 248
247 99 192 191 195 189 193 189 125 117 248 239 271 267 248 239 217 225 243 241 242 246 250 258 265 274 258 246 251 246 240 233 226 219 216 216 218 225 227 223 226 240 238 235
155 179 180 195 193 183 218 151 131 120 218 304 208 267 256 253 250 254 246 239 248 254 283 293 291 279 266 270 263 248 242 235 225 219 220 221 225 231 226 209 224 225 227 223
89 354 171 167 97 188 132 110 92 118 338 271 240 229 240 227 219 240 246 33 6 339 304 285 285 283 274 271 266 254 246 240 232 226 224 225 227 223 215 212 213 215 215 215
151 152 136 173 113 147 156 163 133 161 189 239 355 215 245 301 303 269 282 277 281 287 284 290 284 279 277 270 268 261 246 238 227 224 227 228 229 229 227 221 213 205 208 210
180 185 177 184 199 182 190 187 165 211 209 202 111 232 245 260 278 293 277 269 277 279 298 304 305 296 292 292 286 269 255 245 227 226 225 225 229 229 227 223 217 210 212 212
187 140 160 177 155 147 176 210 15 82 31 302 197 255 273 241 267 258 261 263 259 251 330 321 327 329 323 313 303 282 260 248 234 234 233 228 227 223 220 217 213 205 203 208
161 123 194 155 179 172 201 153 137 215 196 233 236 247 251 182 226 230 190 28 20 340 335 343 344 347 341 322 298 264 245 240 233 228 228 232 232 225 220 217 213 211 211 212
117 107 135 155 212 183 170 177 213 194 248 258 279 257 27 46 38 51 77 59 32 6 5 5 354 343 326 309 287 258 237 229 225 225 228 230 228 224 218 218 216 216 215 214
354 65 150 168 49 321 228 207 200 207 207 244 341 265 93 82 74 62 45 358 343 335 349 4 348 320 294 279 272 265 251 241 231 233 233 234 230 226 222 221 219 219 218 216
159 164 129 153 304 260 224 217 233 237 338 222 208 222 88 67 351 21 6 347 343 347 317 312 311 315 296 277 260 250 244 241 236 233 234 233 231 229 226 223 221 221 217 220
65 72 23 160 66 327 195 217 215 220 224 221 229 249 160 147 297 303 312 305 305 308 308 307 308 311 308 283 261 250 248 243 238 235 232 235 238 234 231 226 226 225 222 222
6 116 124 124 107 130 236 238 217 222 235 241 259 264 271 304 311 312 303 300 299 293 298 302 308 308 302 297 282 268 254 240 243 233 233 238 238 238 234 228 227 228 227 227
12 128 159 159 172 157 236 243 249 242 249 251 265 271 290 292 290 298 314 305 303 303 318 330 326 320 314 307 300 284 271 260 250 239 238 243 239 239 235 234 231 226 225 226
22 119 308 153 174 316 270 227 216 232 234 234 249 268 296 314 332 335 327 321 335 355 340 335 333 330 328 325 317 301 283 278 261 253 248 245 243 238 237 234 232 231 227 225
69 79 6 85 251 207 114 21 16 254 246 246 256 281 334 332 336 311 314 35 355 337 329 326 324 324 325 321 318 314 309 295 282 265 256 252 246 240 238 234 231 228 227 225
260 82 104 184 235 318 264 82 204 196 175 47 62 355 341 338 325 301 88 5 343 330 323 315 313 314 312 312 318 315 308 298 285 272 265 258 251 244 237 232 227 223 221 219
231 272 297 143 243 235 109 108 345 253 216 87 9 347 341 339 319 323 348 331 317 315 312 313 316 316 317 324 327 317 311 302 289 286 282 275 264 255 244 238 230 226 219 215
136 202 218 229 267 282 253 270 310 178 105 2 345 332 326 317 307 309 311 309 313 308 310 319 319 311 315 323 328 314 307 298 304 292 291 286 277 265 256 243 235 226 215 212
177 179 192 209 246 259 167 72 204 65 261 353 330 327 312 307 304 296 304 315 322 320 321 322 322 319 323 324 328 317 307 313 316 310 295 282 276 266 256 241 229 220 209 202
215 202 191 204 221 231 188 246 165 359 305 301 287 295 302 300 298 307 313 317 317 317 313 314 316 317 320 322 325 316 316 318 314 305 302 291 268 255 247 239 224 207 205 201
233 222 229 213 237 239 244 247 242 245 267 316 302 297 304 291 307 306 308 306 310 311 312 315 314 313 310 318 319 313 317 322 315 305 299 292 283 254 239 232 221 214 211 213
217 162 207 257 270 272 274 270 311 18 342 314 298 307 298 310 299 306 302 308 310 309 313 316 311 308 305 314 314 316 318 323 315 303 297 293 278 267 256 232 219 220 222 215
200 217 210 219 294 244 48 70 33 320 326 350 322 302 291 296 299 315 303 305 305 310 315 315 314 311 310 314 313 316 319 319 315 299 291 282 271 264 251 242 232 227 227 224
Height
806 808 806 801 802 800 819 825 826 817 812 814 803 801 790 797 799 796 794 793 793 795 799 802 805 809 811 813 815 817 819 821 823 824 826 827 827 829 830 830 831 831 832 833
806 809 798 787 794 807 811 809 818 820 822 823 807 807 795 791 794 795 794 792 792 793 794 798 802 804 807 810 812 813 814 817 818 819 820 823 824 825 826 826 826 826 827 827
791 791 790 794 800 805 806 809 805 812 824 824 819 807 796 789 791 792 792 792 791 790 789 791 794 799 802 805 808 809 810 812 813 814 817 818 820 820 821 821 821 822 823 823
792 797 795 797 797 799 811 809 812 821 820 823 821 816 784 778 784 791 793 791 787 784 786 787 792 795 797 800 803 805 806 807 808 809 810 812 813 815 816 817 818 818 819 821
800 802 800 798 794 796 810 808 814 820 826 830 825 827 797 786 793 789 783 781 782 783 787 790 793 795 796 798 799 800 802 802 803 803 805 807 808 810 813 814 814 815 816 817
808 806 802 799 805 802 809 814 819 825 834 846 822 820 796 789 790 783 780 788 791 790 793 794 794 795 797 797 797 797 798 798 800 801 802 804 806 808 810 810 811 812 813 815
808 808 809 806 811 811 810 813 836 843 844 834 818 812 793 784 781 782 783 786 790 790 791 791 792 793 794 794 794 794 794 795 797 798 800 801 803 805 807 808 809 810 811 812
800 814 809 806 801 809 811 805 812 833 822 808 831 819 793 784 781 781 787 791 791 790 789 790 792 793 793 794 794 794 794 795 796 797 797 799 801 803 804 806 807 808 809 811
789 797 801 803 805 804 813 814 808 824 852 824 806 798 784 781 780 782 787 789 789 788 790 792 792 792 793 793 794 794 795 795 795 796 797 798 798 800 801 803 804 805 806 807
785 804 806 808 806 805 805 802 824 822 830 824 799 798 790 791 786 782 787 787 788 790 791 791 791 792 793 793 792 792 793 793 793 794 794 796 796 797 798 799 800 802 803 804
785 786 812 808 807 805 810 810 810 807 814 812 806 785 780 782 783 786 788 792 793 793 793 792 793 793 792 791 791 791 791 790 790 790 790 791 793 793 794 795 797 798 799 799
807 793 806 806 809 806 797 800 803 811 824 811 811 797 784 786 790 789 793 794 794 794 793 794 794 793 791 789 789 791 790 789 787 788 788 789 789 789 789 789 790 791 792 794
808 810 807 816 815 809 805 799 800 803 813 811 814 793 792 791 791 791 797 797 795 795 793 792 790 789 789 789 788 787 787 787 786 786 784 784 783 782 783 784 786 787 789 790
806 814 809 796 804 805 805 802 802 803 813 807 796 790 791 788 790 789 790 791 791 791 791 789 787 785 784 785 785 784 782 781 780 780 778 778 778 778 780 781 781 782 783 785
809 816 814 818 816 817 809 802 802 804 797 806 793 790 787 787 790 793 793 791 793 792 790 788 787 785 783 781 780 779 776 774 773 772 771 768 769 772 773 774 774 776 779 781
818 816 811 817 812 813 812 807 807 803 801 800 797 794 792 789 789 791 790 793 794 792 790 791 790 786 783 781 778 776 774 771 768 765 763 764 764 763 765 768 768 768 769 772
823 822 822 813 812 812 813 802 801 802 798 801 801 792 788 788 794 797 797 797 797 800 799 796 793 790 785 781 777 772 769 767 764 760 757 756 756 755 755 758 762 763 763 765
830 828 827 824 833 813 790 795 796 795 789 789 790 791 796 800 804 803 798 802 802 800 797 794 790 786 782 778 774 771 768 765 761 757 755 753 751 750 751 753 753 755 757 758
828 824 835 826 820 805 789 798 797 796 796 800 800 803 804 803 799 796 797 801 803 800 797 793 789 784 779 773 767 766 764 760 755 753 750 746 744 743 743 742 744 747 749 750
829 828 834 844 829 813 796 803 802 798 804 806 808 806 805 804 800 793 800 803 801 799 796 792 787 782 778 773 770 762 754 753 750 749 746 743 742 740 738 738 741 743 744 745
843 842 840 837 831 814 804 803 803 813 807 810 810 807 805 807 806 801 801 800 798 796 794 791 785 781 775 770 766 761 757 750 744 739 740 739 737 734 732 733 734 735 738 740
831 835 839 836 837 828 800 807 805 805 807 809 807 806 807 807 804 801 797 795 794 792 789 786 781 775 771 769 765 757 754 751 745 739 735 730 729 730 729 729 728 731 733 735
826 813 816 818 809 798 800 798 799 805 806 806 807 806 806 806 802 799 796 793 791 789 788 786 781 774 769 765 762 756 752 746 741 735 733 730 724 721 723 726 727 728 729 730
815 811 816 814 794 797 798 799 800 803 804 806 807 806 806 804 800 800 797 794 791 788 785 783 778 773 766 762 759 755 748 744 738 732 728 724 726 718 717 720 722 725 727 729
804 811 810 805 794 794 794 795 797 800 803 804 805 806 806 804 801 799 796 793 790 788 786 782 777 771 763 758 753 750 745 740 734 730 726 723 721 719 717 712 712 716 718 722
800 796 800 789 786 788 790 797 800 802 803 805 806 805 803 802 799 798 794 792 790 786 782 778 773 768 761 756 749 744 741 736 731 726 723 720 718 716 714 713 710 709 712 714